Location: Chochol
(49.7771°N, 14.9780°E)
Time: 12:22:28
(UTC+00:00)

Cosmos 1934 Rocket - Pass Details

Date: 09 April 2020
Orbit: 937 x 1000 km, 83.0° (Epoch: 27 May)

Event Time Altitude Azimuth Distance (km) Brightness Sun altitude
Rises 20:17:05 0° 353° (N) 3,701 7.8 -22.1°
Reaches altitude 10° 20:19:45 10° 360° (N) 2,740 7.0 -22.4°
Maximum altitude 20:25:47 47° 73° (ENE) 1,264 4.4 -23.0°
Enters shadow 20:26:55 42° 103° (ESE) 1,343 4.3 -23.2°
